Wetterdaten: Woche 23.01.23 - 29.01.23 (KW4)
Datum Zeit Temp. Aussen Temp. o. S. Temp +5cm Feuchte Auss Luftdruck Regen Sonnenschein Regendauer Solar Windben Empfang
23.01.2023 00:00 1,5 C 1,1 C -1,1 C 96 % 1034,3 hPa 0,0 l/m 0,00 h 0,00 h 0 W/m 5,6 km/h (1 Bft) 95,47 %
23.01.2023 01:00 1,6 C 1,1 C -1,1 C 96 % 1034,5 hPa 0,0 l/m 0,00 h 0,00 h 0 W/m 6,7 km/h (2 Bft) 99,93 %
23.01.2023 02:00 1,6 C 1,1 C -1,1 C 96 % 1034,7 hPa 0,0 l/m 0,00 h 0,00 h 0 W/m 4,8 km/h (1 Bft) 99,71 %
23.01.2023 03:00 1,6 C 1,1 C -1,1 C 96 % 1034,8 hPa 0,0 l/m 0,00 h 0,00 h 0 W/m 8,9 km/h (2 Bft) 96,05 %
23.01.2023 04:00 1,5 C 0,6 C -1,4 C 96 % 1034,7 hPa 0,0 l/m 0,00 h 0,00 h 0 W/m 5,1 km/h (1 Bft) 99,64 %
23.01.2023 05:00 1,1 C 0,4 C -1,4 C 95 % 1035,0 hPa 0,0 l/m 0,00 h 0,00 h 0 W/m 9,1 km/h (2 Bft) 99,56 %
23.01.2023 06:00 1,5 C 1,0 C -1,1 C 95 % 1035,1 hPa 0,0 l/m 0,00 h 0,00 h 0 W/m 8,6 km/h (2 Bft) 97,81 %
23.01.2023 07:00 1,6 C 1,0 C -0,9 C 95 % 1035,5 hPa 0,0 l/m 0,00 h 0,00 h 0 W/m 11,0 km/h (2 Bft) 98,54 %
23.01.2023 08:00 1,7 C 1,1 C -0,9 C 94 % 1036,1 hPa 0,0 l/m 0,00 h 0,00 h 7 W/m 11,8 km/h (2 Bft) 100,00 %
23.01.2023 09:00 2,0 C 1,6 C -0,6 C 95 % 1036,4 hPa 0,0 l/m 0,00 h 0,00 h 20 W/m 9,9 km/h (2 Bft) 97,81 %
23.01.2023 10:00 2,3 C 2,2 C -0,2 C 94 % 1036,8 hPa 0,0 l/m 0,00 h 0,00 h 40 W/m 9,4 km/h (2 Bft) 99,63 %
23.01.2023 11:00 2,6 C 2,6 C 0,1 C 93 % 1036,9 hPa 0,0 l/m 0,00 h 0,00 h 51 W/m 10,5 km/h (2 Bft) 97,88 %
23.01.2023 12:00 3,0 C 3,2 C 0,6 C 91 % 1036,8 hPa 0,0 l/m 0,00 h 0,00 h 73 W/m 9,4 km/h (2 Bft) 97,88 %
23.01.2023 13:00 3,4 C 3,4 C 0,7 C 88 % 1036,7 hPa 0,0 l/m 0,00 h 0,00 h 68 W/m 9,4 km/h (2 Bft) 99,27 %
23.01.2023 14:00 3,3 C 3,3 C 0,6 C 86 % 1036,7 hPa 0,0 l/m 0,00 h 0,00 h 58 W/m 11,3 km/h (2 Bft) 99,71 %
23.01.2023 15:00 3,3 C 3,0 C 0,3 C 86 % 1036,9 hPa 0,0 l/m 0,00 h 0,00 h 33 W/m 7,0 km/h (2 Bft) 97,95 %
23.01.2023 16:00 3,2 C 2,8 C 0,0 C 87 % 1037,0 hPa 0,0 l/m 0,00 h 0,00 h 9 W/m 8,3 km/h (2 Bft) 99,93 %
23.01.2023 17:00 3,0 C 2,4 C -0,3 C 86 % 1036,7 hPa 0,0 l/m 0,00 h 0,00 h 0 W/m 16,9 km/h (3 Bft) 98,68 %
23.01.2023 18:00 2,8 C 2,2 C -0,6 C 86 % 1037,0 hPa 0,0 l/m 0,00 h 0,00 h 0 W/m 16,1 km/h (3 Bft) 96,86 %
23.01.2023 19:00 2,6 C 2,2 C -0,7 C 87 % 1037,0 hPa 0,0 l/m 0,00 h 0,00 h 0 W/m 13,2 km/h (3 Bft) 99,49 %
23.01.2023 20:00 2,5 C 2,2 C -0,6 C 88 % 1037,3 hPa 0,0 l/m 0,00 h 0,00 h 0 W/m 9,3 km/h (2 Bft) 99,51 %
23.01.2023 21:00 2,7 C 2,2 C -0,6 C 89 % 1037,7 hPa 0,0 l/m 0,00 h 0,00 h 0 W/m 9,8 km/h (2 Bft) 96,54 %
23.01.2023 22:00 2,8 C 2,2 C -0,6 C 88 % 1037,6 hPa 0,0 l/m 0,00 h 0,00 h 0 W/m 12,5 km/h (3 Bft) 96,14 %
23.01.2023 23:00 2,8 C 2,2 C -0,6 C 88 % 1037,5 hPa 0,0 l/m 0,00 h 0,00 h 0 W/m 11,2 km/h (2 Bft) 96,73 %
24.01.2023 00:00 2,7 C 2,2 C -0,6 C 89 % 1037,5 hPa 0,0 l/m 0,00 h 0,00 h 0 W/m 8,9 km/h (2 Bft) 96,81 %
24.01.2023 01:00 2,5 C 2,2 C -1,0 C 89 % 1037,6 hPa 0,0 l/m 0,00 h 0,00 h 0 W/m 11,8 km/h (2 Bft) 97,94 %
24.01.2023 02:00 2,4 C 1,9 C -1,1 C 89 % 1037,6 hPa 0,0 l/m 0,00 h 0,00 h 0 W/m 9,6 km/h (2 Bft) 97,35 %
24.01.2023 03:00 2,3 C 1,7 C -1,1 C 89 % 1037,6 hPa 0,0 l/m 0,00 h 0,00 h 0 W/m 11,8 km/h (2 Bft) 97,44 %
24.01.2023 04:00 2,3 C 1,7 C -1,1 C 88 % 1037,4 hPa 0,0 l/m 0,00 h 0,00 h 0 W/m 10,6 km/h (2 Bft) 94,26 %
24.01.2023 05:00 2,1 C 1,7 C -1,1 C 87 % 1037,4 hPa 0,0 l/m 0,00 h 0,00 h 0 W/m 10,1 km/h (2 Bft) 99,08 %
24.01.2023 06:00 2,0 C 1,4 C -1,6 C 87 % 1037,5 hPa 0,0 l/m 0,00 h 0,00 h 0 W/m 9,2 km/h (2 Bft) 94,89 %
24.01.2023 07:00 1,9 C 1,2 C -1,7 C 88 % 1037,9 hPa 0,0 l/m 0,00 h 0,00 h 0 W/m 9,3 km/h (2 Bft) 97,47 %
24.01.2023 08:00 1,9 C 1,3 C -1,7 C 88 % 1038,3 hPa 0,0 l/m 0,00 h 0,00 h 8 W/m 9,3 km/h (2 Bft) 96,37 %
24.01.2023 09:00 2,1 C 1,8 C -1,1 C 88 % 1038,7 hPa 0,0 l/m 0,00 h 0,00 h 26 W/m 10,3 km/h (2 Bft) 96,08 %
24.01.2023 10:00 2,3 C 2,2 C -1,1 C 87 % 1039,1 hPa 0,0 l/m 0,00 h 0,00 h 51 W/m 10,1 km/h (2 Bft) 96,72 %
24.01.2023 11:00 2,5 C 2,7 C -0,6 C 87 % 1039,2 hPa 0,0 l/m 0,00 h 0,00 h 70 W/m 9,3 km/h (2 Bft) 97,51 %
24.01.2023 12:00 2,8 C 3,0 C -0,4 C 86 % 1039,0 hPa 0,0 l/m 0,00 h 0,00 h 90 W/m 8,0 km/h (2 Bft) 96,04 %
24.01.2023 13:00 3,1 C 3,3 C 0,0 C 85 % 1038,4 hPa 0,0 l/m 0,00 h 0,00 h 96 W/m 7,9 km/h (2 Bft) 97,89 %
24.01.2023 14:00 3,1 C 3,3 C -0,1 C 84 % 1038,1 hPa 0,0 l/m 0,00 h 0,00 h 80 W/m 9,0 km/h (2 Bft) 95,73 %
24.01.2023 15:00 2,9 C 2,8 C -0,6 C 84 % 1038,1 hPa 0,0 l/m 0,00 h 0,00 h 49 W/m 9,0 km/h (2 Bft) 97,71 %
24.01.2023 16:00 2,6 C 2,1 C -1,0 C 85 % 1038,4 hPa 0,0 l/m 0,00 h 0,00 h 15 W/m 7,4 km/h (2 Bft) 95,05 %
24.01.2023 17:00 2,2 C 1,7 C -1,4 C 86 % 1038,3 hPa 0,0 l/m 0,00 h 0,00 h 0 W/m 6,4 km/h (2 Bft) 94,21 %
24.01.2023 18:00 1,9 C 1,4 C -1,7 C 87 % 1038,4 hPa 0,0 l/m 0,00 h 0,00 h 0 W/m 6,5 km/h (2 Bft) 84,11 %
24.01.2023 19:00 1,7 C 1,5 C -1,7 C 87 % 1038,4 hPa 0,0 l/m 0,00 h 0,00 h 0 W/m 5,9 km/h (2 Bft) 72,98 %
24.01.2023 20:00 1,6 C 1,2 C -2,1 C 87 % 1038,3 hPa 0,0 l/m 0,00 h 0,00 h 0 W/m 5,6 km/h (1 Bft) 93,80 %
24.01.2023 21:00 1,3 C 1,0 C -2,2 C 87 % 1038,4 hPa 0,0 l/m 0,00 h 0,00 h 0 W/m 4,2 km/h (1 Bft) 92,20 %
24.01.2023 22:00 1,2 C 0,7 C -2,2 C 87 % 1038,5 hPa 0,0 l/m 0,00 h 0,00 h 0 W/m 0,0 km/h (0 Bft) 96,06 %
24.01.2023 23:00 0,9 C 0,6 C -2,7 C 87 % 1038,2 hPa 0,0 l/m 0,00 h 0,00 h 0 W/m 2,7 km/h (1 Bft) 97,86 %
25.01.2023 00:00 0,7 C 0,1 C -2,8 C 88 % 1037,9 hPa 0,0 l/m 0,00 h 0,00 h 0 W/m 4,0 km/h (1 Bft) 95,29 %
25.01.2023 01:00 0,5 C 0,0 C -2,8 C 89 % 1037,3 hPa 0,0 l/m 0,00 h 0,00 h 0 W/m 4,0 km/h (1 Bft) 94,60 %
25.01.2023 02:00 0,4 C 0,0 C -2,8 C 89 % 1037,0 hPa 0,0 l/m 0,00 h 0,00 h 0 W/m 5,0 km/h (1 Bft) 96,85 %
25.01.2023 03:00 0,4 C 0,0 C -2,8 C 90 % 1036,8 hPa 0,0 l/m 0,00 h 0,00 h 0 W/m 3,3 km/h (1 Bft) 97,65 %
25.01.2023 04:00 0,3 C 0,0 C -2,8 C 90 % 1036,6 hPa 0,0 l/m 0,00 h 0,00 h 0 W/m 2,9 km/h (1 Bft) 94,60 %
25.01.2023 05:00 0,2 C -0,1 C -2,8 C 90 % 1036,1 hPa 0,0 l/m 0,00 h 0,00 h 0 W/m 2,8 km/h (1 Bft) 97,94 %
25.01.2023 06:00 0,3 C 0,0 C -2,8 C 90 % 1035,7 hPa 0,0 l/m 0,00 h 0,00 h 0 W/m 2,6 km/h (1 Bft) 96,79 %
25.01.2023 07:00 0,4 C -0,0 C -2,8 C 91 % 1035,5 hPa 0,0 l/m 0,00 h 0,00 h 0 W/m 2,3 km/h (1 Bft) 91,93 %
25.01.2023 08:00 0,3 C -0,4 C -2,8 C 93 % 1035,5 hPa 0,0 l/m 0,00 h 0,00 h 5 W/m 4,6 km/h (1 Bft) 96,80 %
25.01.2023 09:00 0,1 C -0,5 C -2,9 C 93 % 1035,3 hPa 0,0 l/m 0,00 h 0,00 h 10 W/m 4,0 km/h (1 Bft) 95,85 %
25.01.2023 10:00 0,0 C -0,6 C -2,8 C 94 % 1035,0 hPa 0,0 l/m 0,00 h 0,00 h 21 W/m 4,0 km/h (1 Bft) 93,27 %
25.01.2023 11:00 -0,0 C -0,3 C -2,8 C 94 % 1034,6 hPa 0,0 l/m 0,00 h 0,00 h 31 W/m 6,0 km/h (2 Bft) 98,22 %
25.01.2023 12:00 -0,1 C -0,3 C -2,8 C 94 % 1033,7 hPa 0,0 l/m 0,00 h 0,00 h 39 W/m 4,7 km/h (1 Bft) 95,81 %
25.01.2023 13:00 -0,1 C -0,3 C -2,8 C 93 % 1032,3 hPa 0,0 l/m 0,00 h 0,00 h 38 W/m 4,8 km/h (1 Bft) 95,72 %
25.01.2023 14:00 0,1 C 0,0 C -2,8 C 93 % 1031,1 hPa 0,0 l/m 0,00 h 0,00 h 30 W/m 5,1 km/h (1 Bft) 99,00 %
25.01.2023 15:00 0,2 C -0,1 C -2,8 C 93 % 1030,6 hPa 0,0 l/m 0,00 h 0,00 h 17 W/m 4,8 km/h (1 Bft) 95,71 %
25.01.2023 16:00 -0,1 C -0,6 C -2,9 C 93 % 1030,1 hPa 0,0 l/m 0,00 h 0,00 h 8 W/m 4,4 km/h (1 Bft) 97,56 %
25.01.2023 17:00 -0,3 C -1,0 C -3,3 C 94 % 1029,7 hPa 0,0 l/m 0,00 h 0,00 h 0 W/m 5,0 km/h (1 Bft) 94,28 %
25.01.2023 18:00 -0,6 C -1,1 C -3,4 C 94 % 1029,5 hPa 0,0 l/m 0,00 h 0,00 h 0 W/m 7,8 km/h (2 Bft) 98,22 %
25.01.2023 19:00 -0,6 C -1,1 C -3,7 C 93 % 1029,1 hPa 0,0 l/m 0,00 h 0,00 h 0 W/m 7,6 km/h (2 Bft) 94,85 %
25.01.2023 20:00 -0,8 C -1,3 C -3,9 C 92 % 1028,1 hPa 0,0 l/m 0,00 h 0,00 h 0 W/m 3,9 km/h (1 Bft) 94,87 %
25.01.2023 21:00 -0,9 C -1,6 C -3,9 C 92 % 1027,5 hPa 0,0 l/m 0,00 h 0,00 h 0 W/m 5,6 km/h (1 Bft) 98,22 %
25.01.2023 22:00 -1,1 C -1,7 C -3,9 C 93 % 1027,2 hPa 0,0 l/m 0,00 h 0,00 h 0 W/m 6,4 km/h (2 Bft) 96,23 %
25.01.2023 23:00 -1,3 C -1,9 C -4,4 C 93 % 1027,2 hPa 0,0 l/m 0,00 h 0,00 h 0 W/m 7,7 km/h (2 Bft) 97,37 %
26.01.2023 00:00 -1,7 C -2,2 C -4,4 C 93 % 1026,7 hPa 0,0 l/m 0,00 h 0,00 h 0 W/m 4,9 km/h (1 Bft) 93,77 %
26.01.2023 01:00 -1,8 C -2,2 C -4,4 C 93 % 1025,8 hPa 0,0 l/m 0,00 h 0,00 h 0 W/m 6,3 km/h (2 Bft) 95,56 %
26.01.2023 02:00 -1,8 C -2,2 C -4,4 C 94 % 1025,3 hPa 0,0 l/m 0,00 h 0,00 h 0 W/m 7,8 km/h (2 Bft) 95,29 %
26.01.2023 03:00 -1,7 C -2,2 C -4,4 C 95 % 1025,0 hPa 0,0 l/m 0,00 h 0,00 h 0 W/m 3,5 km/h (1 Bft) 94,13 %
26.01.2023 04:00 -1,4 C -1,8 C -4,1 C 96 % 1024,6 hPa 0,0 l/m 0,00 h 0,00 h 0 W/m 2,5 km/h (1 Bft) 99,36 %
26.01.2023 05:00 -1,2 C -1,7 C -4,1 C 96 % 1024,5 hPa 0,0 l/m 0,00 h 0,00 h 0 W/m 1,5 km/h (1 Bft) 96,68 %
26.01.2023 06:00 -1,1 C -1,7 C -3,9 C 96 % 1024,4 hPa 0,0 l/m 0,00 h 0,07 h 0 W/m 2,5 km/h (1 Bft) 96,76 %
26.01.2023 07:00 -1,1 C -1,7 C -3,9 C 97 % 1024,6 hPa 0,0 l/m 0,00 h 0,00 h 0 W/m 0,1 km/h (0 Bft) 98,01 %
26.01.2023 08:00 -0,9 C -1,7 C -3,6 C 97 % 1024,7 hPa 0,0 l/m 0,00 h 0,00 h 7 W/m 0,0 km/h (0 Bft) 92,70 %
26.01.2023 09:00 -0,8 C -1,1 C -3,3 C 97 % 1024,8 hPa 0,0 l/m 0,00 h 0,00 h 31 W/m 1,9 km/h (1 Bft) 93,10 %
26.01.2023 10:00 -0,5 C -0,9 C -3,2 C 97 % 1025,1 hPa 0,2 l/m 0,00 h 0,00 h 42 W/m 3,7 km/h (1 Bft) 97,51 %
26.01.2023 11:00 -0,0 C -0,1 C -2,6 C 98 % 1025,0 hPa 0,2 l/m 0,00 h 0,13 h 75 W/m 3,7 km/h (1 Bft) 97,80 %
26.01.2023 12:00 0,5 C 0,5 C -2,0 C 98 % 1024,7 hPa 0,0 l/m 0,00 h 0,00 h 76 W/m 5,2 km/h (1 Bft) 97,04 %
26.01.2023 13:00 0,8 C 0,6 C -1,7 C 98 % 1024,2 hPa 0,4 l/m 0,00 h 0,00 h 56 W/m 6,6 km/h (2 Bft) 96,73 %
26.01.2023 14:00 1,1 C 0,7 C -1,5 C 98 % 1023,9 hPa 0,0 l/m 0,00 h 0,00 h 38 W/m 7,2 km/h (2 Bft) 97,73 %
26.01.2023 15:00 2,1 C 2,3 C -0,5 C 98 % 1023,8 hPa 0,0 l/m 0,00 h 0,00 h 49 W/m 8,5 km/h (2 Bft) 96,79 %
26.01.2023 16:00 3,0 C 2,9 C 0,3 C 99 % 1023,9 hPa 0,0 l/m 0,00 h 0,00 h 22 W/m 9,2 km/h (2 Bft) 95,53 %
26.01.2023 17:00 3,3 C 2,8 C 0,6 C 99 % 1023,8 hPa 0,0 l/m 0,00 h 0,00 h 7 W/m 3,7 km/h (1 Bft) 91,62 %
26.01.2023 18:00 3,2 C 2,8 C 0,6 C 99 % 1023,9 hPa 0,0 l/m 0,00 h 0,00 h 0 W/m 0,8 km/h (0 Bft) 77,86 %
26.01.2023 19:00 3,3 C 2,8 C 0,6 C 99 % 1023,9 hPa 0,0 l/m 0,00 h 0,00 h 0 W/m 0,9 km/h (0 Bft) 88,04 %
26.01.2023 20:00 3,4 C 2,8 C 0,6 C 99 % 1023,9 hPa 0,0 l/m 0,00 h 0,00 h 0 W/m 0,9 km/h (0 Bft) 94,69 %
26.01.2023 21:00 3,4 C 3,0 C 0,8 C 99 % 1023,9 hPa 0,0 l/m 0,00 h 0,00 h 0 W/m 3,7 km/h (1 Bft) 92,81 %
26.01.2023 22:00 3,8 C 3,5 C 1,1 C 99 % 1023,7 hPa 0,0 l/m 0,00 h 0,00 h 0 W/m 7,6 km/h (2 Bft) 95,65 %
26.01.2023 23:00 3,8 C 3,3 C 1,1 C 99 % 1023,6 hPa 0,0 l/m 0,00 h 0,00 h 0 W/m 8,3 km/h (2 Bft) 97,35 %
27.01.2023 00:00 3,2 C 2,7 C 0,3 C 98 % 1023,6 hPa 0,0 l/m 0,00 h 0,00 h 0 W/m 8,7 km/h (2 Bft) 95,10 %
27.01.2023 01:00 3,3 C 3,2 C 0,6 C 97 % 1023,6 hPa 0,0 l/m 0,00 h 0,00 h 0 W/m 11,5 km/h (2 Bft) 99,15 %
27.01.2023 02:00 3,6 C 3,3 C 0,6 C 94 % 1023,8 hPa 0,0 l/m 0,00 h 0,00 h 0 W/m 11,5 km/h (2 Bft) 95,15 %
27.01.2023 03:00 3,7 C 3,3 C 0,4 C 92 % 1024,1 hPa 0,0 l/m 0,00 h 0,00 h 0 W/m 16,1 km/h (3 Bft) 96,42 %
27.01.2023 04:00 3,3 C 2,8 C 0,0 C 92 % 1024,5 hPa 0,0 l/m 0,00 h 0,00 h 0 W/m 16,4 km/h (3 Bft) 95,99 %
27.01.2023 05:00 3,0 C 2,2 C 0,0 C 92 % 1024,7 hPa 0,0 l/m 0,00 h 0,03 h 0 W/m 12,8 km/h (3 Bft) 97,51 %
27.01.2023 06:00 2,8 C 2,2 C -0,5 C 94 % 1024,9 hPa 0,0 l/m 0,00 h 0,13 h 0 W/m 10,6 km/h (2 Bft) 95,49 %
27.01.2023 07:00 2,8 C 2,2 C 0,0 C 95 % 1025,2 hPa 0,0 l/m 0,00 h 0,00 h 0 W/m 8,8 km/h (2 Bft) 96,71 %
27.01.2023 08:00 3,0 C 2,7 C 0,2 C 96 % 1025,6 hPa 0,0 l/m 0,00 h 0,00 h 9 W/m 11,8 km/h (2 Bft) 97,94 %
27.01.2023 09:00 3,4 C 3,1 C 0,7 C 95 % 1025,8 hPa 0,0 l/m 0,00 h 0,00 h 22 W/m 12,8 km/h (3 Bft) 95,75 %
27.01.2023 10:00 3,9 C 3,7 C 1,1 C 94 % 1026,2 hPa 0,0 l/m 0,00 h 0,00 h 37 W/m 16,0 km/h (3 Bft) 97,67 %
27.01.2023 11:00 4,3 C 4,1 C 1,5 C 93 % 1026,4 hPa 0,0 l/m 0,00 h 0,00 h 57 W/m 16,0 km/h (3 Bft) 98,17 %
27.01.2023 12:00 4,6 C 4,4 C 1,7 C 92 % 1026,1 hPa 0,0 l/m 0,00 h 0,00 h 72 W/m 18,0 km/h (3 Bft) 95,17 %
27.01.2023 13:00 4,6 C 4,3 C 1,7 C 91 % 1025,9 hPa 0,0 l/m 0,00 h 0,00 h 43 W/m 18,1 km/h (3 Bft) 97,78 %
27.01.2023 14:00 4,7 C 4,7 C 1,7 C 89 % 1025,9 hPa 0,0 l/m 0,00 h 0,00 h 31 W/m 13,7 km/h (3 Bft) 99,00 %
27.01.2023 15:00 4,8 C 4,4 C 1,7 C 87 % 1026,1 hPa 0,0 l/m 0,00 h 0,00 h 25 W/m 14,8 km/h (3 Bft) 95,16 %
27.01.2023 16:00 4,7 C 4,2 C 1,1 C 87 % 1026,6 hPa 0,0 l/m 0,00 h 0,00 h 11 W/m 15,1 km/h (3 Bft) 97,36 %
27.01.2023 17:00 4,2 C 3,7 C 0,6 C 88 % 1027,1 hPa 0,0 l/m 0,00 h 0,00 h 0 W/m 10,5 km/h (2 Bft) 97,61 %
27.01.2023 18:00 4,0 C 3,3 C 0,6 C 88 % 1027,5 hPa 0,0 l/m 0,00 h 0,00 h 0 W/m 12,4 km/h (3 Bft) 95,72 %
27.01.2023 19:00 3,9 C 3,3 C 0,6 C 88 % 1027,9 hPa 0,0 l/m 0,00 h 0,00 h 0 W/m 11,0 km/h (2 Bft) 97,34 %
27.01.2023 20:00 3,7 C 3,0 C 0,0 C 89 % 1028,2 hPa 0,0 l/m 0,00 h 0,00 h 0 W/m 7,7 km/h (2 Bft) 96,42 %
27.01.2023 21:00 3,5 C 2,8 C 0,0 C 89 % 1028,5 hPa 0,0 l/m 0,00 h 0,00 h 0 W/m 8,1 km/h (2 Bft) 93,90 %
27.01.2023 22:00 3,4 C 2,8 C 0,0 C 87 % 1028,6 hPa 0,0 l/m 0,00 h 0,00 h 0 W/m 10,9 km/h (2 Bft) 96,58 %
27.01.2023 23:00 3,3 C 2,8 C -0,4 C 88 % 1028,5 hPa 0,0 l/m 0,00 h 0,00 h 0 W/m 8,5 km/h (2 Bft) 96,83 %
28.01.2023 00:00 3,0 C 2,3 C -0,6 C 89 % 1028,6 hPa 0,0 l/m 0,00 h 0,00 h 0 W/m 7,3 km/h (2 Bft) 95,21 %
28.01.2023 01:00 2,7 C 2,2 C -0,7 C 89 % 1028,6 hPa 0,0 l/m 0,00 h 0,00 h 0 W/m 6,2 km/h (2 Bft) 97,34 %
28.01.2023 02:00 2,4 C 1,8 C -1,1 C 88 % 1028,7 hPa 0,0 l/m 0,00 h 0,00 h 0 W/m 7,5 km/h (2 Bft) 96,99 %
28.01.2023 03:00 2,1 C 1,6 C -1,2 C 88 % 1029,0 hPa 0,0 l/m 0,00 h 0,00 h 0 W/m 9,2 km/h (2 Bft) 96,80 %
28.01.2023 04:00 1,7 C 1,1 C -1,7 C 86 % 1029,1 hPa 0,0 l/m 0,00 h 0,00 h 0 W/m 10,5 km/h (2 Bft) 95,11 %
28.01.2023 05:00 1,5 C 1,1 C -1,8 C 85 % 1029,4 hPa 0,0 l/m 0,00 h 0,00 h 0 W/m 6,8 km/h (2 Bft) 97,84 %
28.01.2023 06:00 1,4 C 0,9 C -2,2 C 84 % 1029,5 hPa 0,0 l/m 0,00 h 0,00 h 0 W/m 6,3 km/h (2 Bft) 93,42 %
28.01.2023 07:00 1,2 C 0,6 C -2,2 C 83 % 1029,8 hPa 0,0 l/m 0,00 h 0,00 h 0 W/m 5,6 km/h (1 Bft) 98,01 %
28.01.2023 08:00 1,1 C 0,6 C -2,2 C 83 % 1029,8 hPa 0,0 l/m 0,00 h 0,00 h 7 W/m 2,7 km/h (1 Bft) 95,65 %
28.01.2023 09:00 1,2 C 0,9 C -2,2 C 83 % 1030,4 hPa 0,0 l/m 0,00 h 0,00 h 30 W/m 5,9 km/h (2 Bft) 95,45 %
28.01.2023 10:00 1,4 C 1,1 C -2,0 C 80 % 1031,2 hPa 0,0 l/m 0,00 h 0,00 h 46 W/m 10,9 km/h (2 Bft) 97,31 %
28.01.2023 11:00 1,5 C 1,7 C -1,8 C 79 % 1031,3 hPa 0,0 l/m 0,00 h 0,00 h 97 W/m 9,5 km/h (2 Bft) 95,95 %
28.01.2023 12:00 1,5 C 1,6 C -1,7 C 78 % 1031,4 hPa 0,0 l/m 0,00 h 0,00 h 83 W/m 10,8 km/h (2 Bft) 97,12 %
28.01.2023 13:00 1,4 C 1,7 C -1,9 C 79 % 1030,8 hPa 0,0 l/m 0,00 h 0,00 h 111 W/m 9,2 km/h (2 Bft) 98,08 %
28.01.2023 14:00 1,7 C 2,1 C -1,7 C 78 % 1030,4 hPa 0,0 l/m 0,00 h 0,00 h 99 W/m 6,0 km/h (2 Bft) 95,88 %
28.01.2023 15:00 1,6 C 1,9 C -2,0 C 77 % 1030,4 hPa 0,0 l/m 0,33 h 0,00 h 107 W/m 6,0 km/h (2 Bft) 97,16 %
28.01.2023 16:00 1,1 C 0,4 C -2,9 C 78 % 1030,4 hPa 0,0 l/m 0,00 h 0,00 h 32 W/m 2,2 km/h (1 Bft) 95,98 %
28.01.2023 17:00 0,2 C -1,1 C -4,0 C 82 % 1031,1 hPa 0,0 l/m 0,00 h 0,00 h 7 W/m 3,3 km/h (1 Bft) 98,25 %
28.01.2023 18:00 -0,7 C -2,4 C -5,2 C 84 % 1031,1 hPa 0,0 l/m 0,00 h 0,00 h 0 W/m 0,3 km/h (0 Bft) 92,34 %
28.01.2023 19:00 -1,7 C -3,1 C -5,8 C 85 % 1031,6 hPa 0,0 l/m 0,00 h 0,00 h 0 W/m 0,0 km/h (0 Bft) 92,44 %
28.01.2023 20:00 -2,3 C -3,3 C -6,1 C 87 % 1031,8 hPa 0,0 l/m 0,00 h 0,00 h 0 W/m 0,2 km/h (0 Bft) 96,80 %
28.01.2023 21:00 -2,4 C -3,2 C -6,1 C 89 % 1031,9 hPa 0,0 l/m 0,00 h 0,00 h 0 W/m 0,0 km/h (0 Bft) 97,42 %
28.01.2023 22:00 -2,1 C -3,3 C -6,1 C 91 % 1031,4 hPa 0,0 l/m 0,00 h 0,00 h 0 W/m 0,1 km/h (0 Bft) 98,21 %
28.01.2023 23:00 -2,7 C -3,9 C -6,7 C 91 % 1031,5 hPa 0,0 l/m 0,00 h 0,00 h 0 W/m 0,0 km/h (0 Bft) 94,03 %
29.01.2023 00:00 -3,1 C -3,9 C -6,7 C 91 % 1031,3 hPa 0,0 l/m 0,00 h 0,00 h 0 W/m 0,0 km/h (0 Bft) 92,95 %
29.01.2023 01:00 -3,3 C -4,2 C -6,7 C 92 % 1030,9 hPa 0,0 l/m 0,00 h 0,00 h 0 W/m 0,5 km/h (0 Bft) 96,02 %
29.01.2023 02:00 -3,8 C -4,6 C -7,1 C 92 % 1030,7 hPa 0,0 l/m 0,00 h 0,00 h 0 W/m 0,0 km/h (0 Bft) 95,92 %
29.01.2023 03:00 -3,8 C -4,4 C -6,8 C 93 % 1030,7 hPa 0,0 l/m 0,00 h 0,00 h 0 W/m 0,1 km/h (0 Bft) 96,56 %
29.01.2023 04:00 -3,5 C -4,0 C -6,2 C 93 % 1030,7 hPa 0,0 l/m 0,00 h 0,00 h 0 W/m 3,2 km/h (1 Bft) 95,34 %
29.01.2023 05:00 -3,3 C -4,0 C -6,3 C 94 % 1030,4 hPa 0,0 l/m 0,00 h 0,00 h 0 W/m 1,5 km/h (1 Bft) 99,07 %
29.01.2023 06:00 -3,1 C -3,4 C -5,7 C 94 % 1029,9 hPa 0,0 l/m 0,00 h 0,00 h 0 W/m 2,8 km/h (1 Bft) 96,66 %
29.01.2023 07:00 -2,5 C -2,9 C -5,1 C 94 % 1030,2 hPa 0,0 l/m 0,00 h 0,00 h 0 W/m 4,9 km/h (1 Bft) 88,40 %
29.01.2023 08:00 -2,2 C -2,5 C -4,9 C 94 % 1030,0 hPa 0,0 l/m 0,00 h 0,00 h 13 W/m 6,0 km/h (2 Bft) 96,58 %
29.01.2023 09:00 -1,7 C -1,8 C -4,3 C 94 % 1029,9 hPa 0,0 l/m 0,00 h 0,00 h 42 W/m 8,9 km/h (2 Bft) 97,06 %
29.01.2023 10:00 -0,9 C -0,9 C -3,6 C 94 % 1029,5 hPa 0,0 l/m 0,00 h 0,00 h 69 W/m 12,0 km/h (2 Bft) 96,16 %
29.01.2023 11:00 -0,1 C 0,0 C -2,8 C 92 % 1029,2 hPa 0,0 l/m 0,00 h 0,00 h 81 W/m 8,6 km/h (2 Bft) 98,01 %
29.01.2023 12:00 0,6 C 0,7 C -2,2 C 90 % 1028,5 hPa 0,0 l/m 0,00 h 0,00 h 85 W/m 13,0 km/h (3 Bft) 96,71 %
29.01.2023 13:00 1,2 C 1,3 C -1,8 C 88 % 1027,3 hPa 0,0 l/m 0,00 h 0,00 h 94 W/m 11,5 km/h (2 Bft) 94,11 %
29.01.2023 14:00 1,8 C 1,6 C -1,6 C 86 % 1026,4 hPa 0,0 l/m 0,00 h 0,00 h 63 W/m 14,0 km/h (3 Bft) 97,09 %
29.01.2023 15:00 1,8 C 1,1 C -1,7 C 85 % 1026,1 hPa 0,0 l/m 0,00 h 0,00 h 26 W/m 17,2 km/h (3 Bft) 97,15 %
29.01.2023 16:00 1,9 C 1,1 C -1,7 C 85 % 1025,7 hPa 0,0 l/m 0,00 h 0,00 h 9 W/m 18,7 km/h (3 Bft) 96,13 %
29.01.2023 17:00 2,0 C 1,4 C -1,7 C 85 % 1025,1 hPa 0,0 l/m 0,00 h 0,00 h 4 W/m 19,6 km/h (3 Bft) 96,67 %
29.01.2023 18:00 2,0 C 1,4 C -1,7 C 85 % 1024,7 hPa 0,0 l/m 0,00 h 0,00 h 0 W/m 21,2 km/h (4 Bft) 85,31 %
29.01.2023 19:00 2,0 C 1,5 C -1,7 C 85 % 1024,1 hPa 0,0 l/m 0,00 h 0,00 h 0 W/m 20,1 km/h (4 Bft) 93,79 %
29.01.2023 20:00 2,2 C 1,7 C -1,7 C 85 % 1023,4 hPa 0,0 l/m 0,00 h 0,00 h 0 W/m 23,5 km/h (4 Bft) 95,94 %
29.01.2023 21:00 2,3 C 1,8 C -1,4 C 88 % 1022,3 hPa 0,0 l/m 0,00 h 0,00 h 0 W/m 28,2 km/h (4 Bft) 92,30 %
29.01.2023 22:00 2,7 C 2,2 C -1,1 C 89 % 1022,0 hPa 0,0 l/m 0,00 h 0,00 h 0 W/m 19,2 km/h (3 Bft) 97,85 %
29.01.2023 23:00 2,8 C 2,2 C -1,1 C 91 % 1021,7 hPa 0,0 l/m 0,00 h 0,00 h 0 W/m 17,1 km/h (3 Bft) 97,54 %
Min-Datum _ 29.01.23 29.01.23 29.01.23 28.01.23 29.01.23 - - - - 23.01.23 26.01.23
_ Min-Zeit 02:24 02:08 01:54 15:04 23:56 - - - - 02:25 00:02
Minimum _ -3,9 C -5,0 C -7,2 C 77 % 1021,1 hPa - - - - 0,0 km/h (0 Bft) 11,76 %
Max-Datum _ 27.01.23 27.01.23 27.01.23 26.01.23 24.01.23 26.01.23 28.01.23 26.01.23 28.01.23 27.01.23 23.01.23
_ Max-Zeit 15:00 14:22 11:24 15:46 10:40 13:06 15:28 06:16 13:58 04:48 00:35
Maximum _ 5,0 C 5,0 C 1,7 C 99 % 1039,2 hPa 0,4 l/m 0,03 h 0,03 h 179 W/m 38,6 km/h
NO (5 Bft)
100,00 %
Durchschnitt _ 1,3 C 0,9 C -1,8 C 90 % 1030,8 hPa #0,8 l/m #20 min. #22 min. 43 W/m 8,0 km/h (2 Bft) 96,04 %
© 2023 W. Hausmann